Terminal Aerodrome Forecast
Issued by NWS Melbourne, FL

Home | Current Version | Previous Version | Text Only | Print | Product List | Glossary On
Versions: 1 2 3 4 5 6 7 8 9 10 11 12 13 14 15 16 17 18
000
FTUS42 KMLB 221100
TAFVRB
TAF
KVRB 221131Z 2212/2312 27004KT 1SM BR BKN002
      TEMPO 2212/2213 1/2SM FG VV002
     FM221400 33006KT P6SM FEW030 BKN250
     FM221700 01010KT P6SM SCT035 SCT100 BKN250
     FM230000 01007KT P6SM FEW040 SCT120 BKN250
     FM230600 36008KT P6SM BKN250=

USA.gov is the U.S. government's official web portal to all federal, state and local government web resources and services.